Weather History for Fairbanks, AK

Change the Weather History Date:

Friday, December 7, 2012

  Actual Average Record
Temperature  
Mean Temperature -27 °F -3 °F  
Max Temperature -22 °F 6 °F 52 °F (1934)
Min Temperature -32 °F -12 °F -59 °F (1935)
Degree Days  
Heating Degree Days 92 68  
Month to date heating degree days 657 473  
Since 1 July heating degree days 5146 4604  
Cooling Degree Days 0 0  
Month to date cooling degree days 0 0  
Year to date cooling degree days 34 61  
Moisture  
Dew Point -32 °F    
Average Humidity 70    
Maximum Humidity 74    
Minimum Humidity 58    
Precipitation  
Precipitation 0.00 in 0.02 in 0.16 in (1928)
Month to date precipitation T 0.13  
Year to date precipitation 9.43 10.30  
Snow  
Snow 0.00 in 0.40 in 3.00 in (1928)
Month to date snowfall 0.1 2.6  
Since 1 July snowfall 11.4 28.4  
Snow Depth 6.00 in    
Sea Level Pressure  
Sea Level Pressure 30.17 in    
Wind  
Wind Speed 1 mph (NE)    
Max Wind Speed 5 mph    
Max Gust Speed -    
Visibility 10 miles    
Events      
T = Trace of Precipitation, MM = Missing Value Source: NWS Daily Summary

Daily Weather History Graph

Daily Weather History Graph

Search for Another Location

Airport:

Trip Planner

Search our weather history database for the weather conditions in past years. The results will help you decide how hot, cold, wet, or windy it might be!

Date:

Astronomy

Dec. 07, 2012 Rise Set
Actual Time 10:37 AM AKST 2:49 PM AKST
Civil Twilight 9:17 AM AKST 4:08 PM AKST
Nautical Twilight 8:07 AM AKST 5:18 PM AKST
Astronomical Twilight 7:06 AM AKST 6:19 PM AKST
Moon 1:43 AM AKST (12/7) 1:02 PM AKST (12/7)
Length of Visible Light 6h 51m
Length of Day
4h 11m
Last Quarter, 37% of the Moon is Illuminated
Dec 7
Last Quarter
Dec 12
New
Dec 19
First Quarter
Dec 28
Full
Jan 4
Last Quarter

Hourly Weather History & Observations

Time (AKST) Temp. Windchill Dew Point Humidity Pressure Visibility Wind Dir Wind Speed Gust Speed Precip Events Conditions
12:53 AM -29.9 °F - - N/A% 30.17 in 10.0 mi Calm Calm - N/A   Partly Cloudy
1:53 AM -31.0 °F - - N/A% 30.17 in 10.0 mi Calm Calm - N/A   Partly Cloudy
3:53 AM -31.0 °F - - N/A% 30.17 in 10.0 mi Calm Calm - N/A   Partly Cloudy
4:53 AM -29.9 °F -44.8 °F - N/A% 30.17 in 10.0 mi South 4.6 mph - N/A   Partly Cloudy
5:53 AM -29.9 °F - - N/A% 30.18 in 10.0 mi Calm Calm - N/A   Partly Cloudy
6:53 AM -29.9 °F - - N/A% 30.18 in 10.0 mi Calm Calm - N/A   Partly Cloudy
7:53 AM -31.0 °F - - N/A% 30.18 in 10.0 mi Calm Calm - N/A   Partly Cloudy
8:53 AM -29.9 °F - - N/A% 30.18 in 10.0 mi Calm Calm - N/A   Partly Cloudy
9:53 AM -31.0 °F - - N/A% 30.19 in 10.0 mi Calm Calm - N/A   Partly Cloudy
10:53 AM -31.0 °F - - N/A% 30.19 in 10.0 mi Calm Calm - N/A   Clear
11:53 AM -29.9 °F - - N/A% 30.19 in 10.0 mi Calm Calm - N/A   Clear
12:53 PM -27.9 °F - -35.0 °F 69% 30.19 in 10.0 mi Calm Calm - N/A   Partly Cloudy
1:53 PM -26.0 °F -37.5 °F -34.1 °F 66% 30.18 in 10.0 mi NNE 3.5 mph - N/A   Partly Cloudy
2:53 PM -26.0 °F - -32.1 °F 73% 30.18 in 10.0 mi Calm Calm - N/A   Partly Cloudy
3:53 PM -25.1 °F -36.5 °F -32.1 °F 70% 30.17 in 10.0 mi NNE 3.5 mph - N/A   Partly Cloudy
4:53 PM -24.0 °F -35.2 °F -29.9 °F 74% 30.17 in 10.0 mi NNE 3.5 mph - N/A   Partly Cloudy
5:53 PM -26.0 °F -40.2 °F -33.0 °F 69% 30.16 in 10.0 mi NE 4.6 mph - N/A   Partly Cloudy
6:53 PM -24.0 °F -37.9 °F -29.9 °F 74% 30.15 in 10.0 mi NE 4.6 mph - N/A   Partly Cloudy
7:53 PM -24.0 °F -35.2 °F -29.9 °F 74% 30.16 in 10.0 mi NE 3.5 mph - N/A   Partly Cloudy
8:53 PM -24.0 °F -37.9 °F -29.9 °F 74% 30.15 in 10.0 mi NE 4.6 mph - N/A   Partly Cloudy
9:53 PM -24.0 °F -35.2 °F -31.0 °F 70% 30.16 in 10.0 mi NNE 3.5 mph - N/A   Partly Cloudy
10:53 PM -24.0 °F -35.2 °F -31.0 °F 70% 30.16 in 10.0 mi ENE 3.5 mph - N/A   Partly Cloudy
11:53 PM -27.0 °F - -33.0 °F 73% 30.16 in 10.0 mi Calm Calm - N/A   Partly Cloudy